Regional Weather Roundup
Issued by NWS

Home | Current Version | Previous Version | Graphics & Text | Print | Product List | Glossary On
Versions: 1 2 3 4 5 6 7 8 9 10 11 12 13 14 15 16 17 18 19 20 21 22 23 24 25 26 27 28 29 30 31 32 33 34 35 36 37 38 39 40 41 42 43 44 45 46 47 48 49 50
000
ASUS43 KLMK 220302
RWRKY
KENTUCKY REGIONAL WEATHER ROUNDUP
NATIONAL WEATHER SERVICE LOUISVILLE KY
1100 PM EDT THU SEP 21 2017

NOTE "FAIR" INDICATES FEW OR NO CLOUDS BELOW 12,000 FEET
WITH NO SIGNIFICANT WEATHER AND/OR OBSTRUCTIONS TO VISIBILITY.

KYZ001>023-026-027-061>063-070>075-220400-
WESTERN AND SOUTH CENTRAL KENTUCKY

CITY           SKY/WX    TMP DP  RH WIND       PRES   REMARKS
PADUCAH        CLEAR     75  70  84 S5        30.01R
HENDERSON      CLEAR     74  70  87 CALM      30.04R
OWENSBORO      CLEAR     76  71  85 CALM      30.04R
HOPKINSVILLE   CLEAR     73  68  84 CALM      30.04R
BOWLING GREEN  CLEAR     75  71  87 CALM      30.05R
GLASGOW        CLEAR     69  69 100 CALM      30.07R
$$

KYZ024-025-028>034-038-045-046-053-220400-
NORTH CENTRAL KENTUCKY

CITY           SKY/WX    TMP DP  RH WIND       PRES   REMARKS
LOUISVILLE/SDF CLEAR     82  69  64 CALM      30.05S
LOUISVILLE/LOU CLEAR     75  72  90 CALM      30.06R
FORT KNOX      CLEAR     71  71  99 CALM      30.05S
$$

KYZ035>037-039>044-047>052-055>060-089>105-220400-
NORTHEAST KENTUCKY

CITY           SKY/WX    TMP DP  RH WIND       PRES   REMARKS
LEXINGTON      CLEAR     73  66  78 CALM      30.09R
COVINGTON      PTCLDY    73  71  93 CALM      30.08R
FRANKFORT      CLEAR     70  67  90 CALM      30.07R
$$

KYZ054-064>069-076>088-106>120-220400-
SOUTHEAST KENTUCKY

CITY           SKY/WX    TMP DP  RH WIND       PRES   REMARKS
JACKSON        CLEAR     72  65  78 CALM      30.11R
LONDON         CLEAR     69  65  86 CALM      30.10R
SOMERSET       NOT AVBL
MIDDLESBORO    CLEAR     66  66  99 CALM      30.12R
MONTICELLO     CLEAR     65  63  93 W5        30.10R
$$




USA.gov is the U.S. government's official web portal to all federal, state and local government web resources and services.